Weather Roundup
Issued by NWS Chicago, IL

Home | Current Version | Previous Version | Text Only | Print | Product List | Glossary Off
Versions: 1 2 3 4 5 6 7 8 9 10 11 12 13 14 15 16 17 18 19 20 21 22 23 24 25 26 27 28 29 30 31 32 33 34 35 36 37 38 39 40 41 42 43 44 45 46 47 48 49 50

000
NZUS59 KLOT 012321
HRRLOT

CHICAGO AREA WEATHER ROUNDUP
NATIONAL WEATHER SERVICE CHICAGO/ROMEOVILLE IL
600 PM CDT WED APR 01 2015

NOTE: "FAIR" INDICATES FEW OR NO CLOUDS BELOW 12,000 FEET WITH NO
SIGNIFICANT WEATHER AND/OR OBSTRUCTIONS TO VISIBILITY.

* THESE STATIONS ARE NOT UNDER NWS QUALITY CONTROL. THEY ALSO MAY NOT
  REPORT WEATHER SUCH AS PRECIPITATION OR FOG.

ILZ005-006-012>014-019>023-020000-
NORTHEAST ILLINOIS

CITY           SKY/WX    TMP DP  RH WIND       PRES   REMARKS
OHARE          MOSUNNY   71  36  27 S21G28    29.86F
MIDWAY         MOSUNNY   73  36  25 S18G28    29.89F
AURORA         SUNNY     73  36  25 S16G28    29.86F
LANSING*       SUNNY     69  33  26 S17       29.92F
JOLIET*        SUNNY     73  39  28 S14G24    29.89F
WAUKEGAN       SUNNY     56  37  49 SE8       29.85F
DUPAGE AIRPORT SUNNY     72  36  26 S23G30    29.86F
WHEELING       SUNNY     71  35  26 S20G26    29.87F
KANKAKEE*      SUNNY     70  39  33 S16G22    29.93F
MORRIS*        SUNNY     73  37  26 S22G29    29.88S
LEWIS AIRPORT* SUNNY     71  36  28 S18G24    29.88F
NORTHERLY IS     N/A     70  35  27 S13         N/A
$$

WIZ051-052-058>065-066-070>072-020000-
SOUTHEAST WISCONSIN

CITY           SKY/WX    TMP DP  RH WIND       PRES   REMARKS
MILWAUKEE      PTSUNNY   60  35  39 S13G22    29.84F
KENOSHA*       SUNNY     62  39  42 SE10      29.84F
RACINE*        SUNNY     53  35  50 S16       29.86F
BURLINGTON     SUNNY     70  35  27 S20G29    29.82F
WAUKESHA       MOSUNNY   68  37  32 SE12      29.82F
WEST BEND      MOSUNNY   63  34  34 SE13      29.80F
$$

INZ001>003-010>013-019-020-020000-
NORTHWEST INDIANA

CITY           SKY/WX    TMP DP  RH WIND       PRES   REMARKS
GARY*          MOSUNNY   72  23  16 S12G23    29.92F
MICHIGAN CITY* NOT AVBL
RENSSELAER*    NOT AVBL
VALPARAISO     SUNNY     68  36  30 S15G22    29.94F
$$

LMZ740>746-020000-
SOUTHERN LAKE MICHIGAN

STATION/POSITION TIME  SKY/WX   TEMP WIND        PRES    VSBY
                                AIR  DIR/SP/G
                 (UTC)          (F)  (DEG/KT/KT) (MB)    (MI)
HARRISON CRIB    2300            64  170/ 26/ 28   N/A
BURNHAM HARBOR   2300            71  180/  9/ 21   N/A
CALUMET HARBOR   2200            70  160/ 19/ 24 1011.8F
BURNS HARBOR     2200            67  190/ 15/ 20 1013.9F
MICHIGAN CITY    2300            68  150/ 16/ 20   N/A
$$

ABBREVIATIONS USED IN REMARKS
   TC - TEMPERATURE IN CELSIUS
  WCI - WIND CHILL INDEX
   HX - HEAT INDEX
  VSB - VISIBILITY
$$



USA.gov is the U.S. government's official web portal to all federal, state and local government web resources and services.